This is the latest recevied weather packets stored in our database for station/object WB0RXX. If no packets are shown the sender has not sent any weather packets the latest 10 day(s).
| Time | Temp. | Humidity | Pressure | Rain* | Wind** | Luminosity | Snow |
|---|---|---|---|---|---|---|---|
| 1777618204 | 4.44° C | 75% | 1018.3 hPa | 0 mm | - | - | - |
| 1777617604 | 5° C | 75% | 1018.5 hPa | 0 mm | - | - | - |
| 1777617004 | 5° C | 76% | 1018.4 hPa | 0 mm | - | - | - |
| 1777616403 | 5.56° C | 75% | 1018.4 hPa | 0 mm | - | - | - |
| 1777615803 | 5.56° C | 73% | 1018.3 hPa | 0 mm | - | - | - |
| 1777615204 | 6.11° C | 74% | 1018.3 hPa | 0 mm | - | - | - |
| 1777614604 | 5.56° C | 78% | 1018.3 hPa | 0 mm | - | - | - |
| 1777614004 | 5.56° C | 85% | 1018.3 hPa | 0 mm | - | - | - |
| 1777613404 | 5.56° C | 89% | 1018.3 hPa | 0 mm | - | - | - |
| 1777612803 | 5.56° C | 89% | 1018.2 hPa | 0 mm | - | - | - |
| 1777612203 | 5.56° C | 90% | 1018.2 hPa | 0 mm | - | - | - |
| 1777611606 | 5.56° C | 90% | 1018.1 hPa | 0 mm | - | - | - |
| 1777611004 | 5.56° C | 91% | 1018 hPa | 0 mm | - | - | - |
| 1777610403 | 5.56° C | 91% | 1018 hPa | 0 mm | - | - | - |
| 1777609804 | 5° C | 91% | 1017.9 hPa | 0 mm | - | - | - |
| 1777609204 | 5° C | 90% | 1017.9 hPa | 0 mm | - | - | - |
| 1777608620 | 5° C | 90% | 1017.9 hPa | 0 mm | - | - | - |
| 1777608003 | 5° C | 89% | 1018 hPa | 0 mm | - | - | - |
| 1777607403 | 5.56° C | 88% | 1017.9 hPa | 0 mm | - | - | - |
| 1777606804 | 5.56° C | 88% | 1018.1 hPa | 0 mm | - | - | - |
| 1777606205 | 5.56° C | 88% | 1018 hPa | 0 mm | - | - | - |
| 1777605603 | 5.56° C | 87% | 1018 hPa | 0 mm | - | - | - |
| 1777605004 | 5.56° C | 87% | 1017.9 hPa | 0 mm | - | - | - |
| 1777604405 | 6.11° C | 87% | 1017.9 hPa | 0 mm | - | - | - |
| 1777603803 | 6.11° C | 87% | 1017.7 hPa | 0 mm | - | - | - |
* Rain latest hour (hover to see other rain measurements)
** Current wind speed in m/s (hover to see current wind gust speed)